Friday Harbor, WA

3:07 PM PDT on September 19, 2017 (GMT -0700)
Friday Harbor

Weather History for KFHR - October, 2011

Change the Weather History Date:

Wednesday, October 12, 2011

  Actual Average Record
Temperature  
Mean Temperature 50 °F -  
Max Temperature 59 °F 56 °F 64 °F (2004)
Min Temperature 43 °F 42 °F 33 °F (2002)
Degree Days  
Heating Degree Days 15    
Moisture  
Dew Point 46 °F    
Average Humidity 84    
Maximum Humidity 96    
Minimum Humidity 64    
Precipitation  
Precipitation 0.01 in - - ()
Sea Level Pressure  
Sea Level Pressure 30.19 in    
Wind  
Wind Speed 3 mph (South)    
Max Wind Speed 9 mph    
Max Gust Speed -    
Visibility 10 miles    
Events Rain    
Averages and records for this station are not official NWS values.
T = Trace of Precipitation, MM = Missing Value Source: NWS Daily Summary

Daily Weather History Graph

Daily Weather History Graph

Search for Another Location

Airport or City:

Trip Planner

Search our weather history database for the weather conditions in past years. The results will help you decide how hot, cold, wet, or windy it might be!

Date:

Astronomy

Oct. 12, 2011 Rise Set
Actual Time 7:27 AM PDT 6:28 PM PDT
Civil Twilight 6:55 AM PDT 7:00 PM PDT
Nautical Twilight 6:19 AM PDT 7:36 PM PDT
Astronomical Twilight 5:43 AM PDT 8:13 PM PDT
Moon 6:23 PM PDT (10/12) 8:16 AM PDT (10/12)
Length of Visible Light 12h 04m
Length of Day
11h 01m
Full, 100% of the Moon is Illuminated
Oct 12
Full
Oct 19
Last Quarter
Oct 26
New
Nov 2
First Quarter
Nov 10
Full

Hourly Weather History & Observations

Time (PDT) Temp. Dew Point Humidity Pressure Visibility Wind Dir Wind Speed Gust Speed Precip Events Conditions
12:53 AM 48.9 °F 46.0 °F 90% 30.06 in 10.0 mi Calm Calm - 0.01 in   Scattered Clouds
1:53 AM 46.0 °F 45.0 °F 96% 30.09 in 10.0 mi Calm Calm - N/A   Mostly Cloudy
2:53 AM 48.9 °F 46.9 °F 93% 30.12 in 10.0 mi WSW 4.6 mph - 0.00 in   Overcast
3:53 AM 50.0 °F 48.0 °F 93% 30.13 in 10.0 mi SE 3.5 mph - N/A   Overcast
4:22 AM 50.0 °F 48.2 °F 94% 30.12 in 8.0 mi SSE 3.5 mph - N/A   Overcast
4:53 AM 50.0 °F 46.9 °F 89% 30.13 in 10.0 mi South 4.6 mph - N/A   Mostly Cloudy
6:53 AM 50.0 °F 48.0 °F 93% 30.16 in 10.0 mi Calm Calm - 0.00 in   Overcast
7:53 AM 50.0 °F 46.9 °F 89% 30.17 in 10.0 mi South 3.5 mph - 0.00 in   Mostly Cloudy
8:53 AM 52.0 °F 48.9 °F 89% 30.19 in 10.0 mi South 3.5 mph - N/A   Mostly Cloudy
9:53 AM 54.0 °F 50.0 °F 86% 30.21 in 10.0 mi SE 5.8 mph - N/A   Clear
10:53 AM 53.1 °F 48.9 °F 86% 30.21 in 10.0 mi South 8.1 mph - N/A   Partly Cloudy
11:53 AM 54.0 °F 48.9 °F 83% 30.23 in 10.0 mi South 4.6 mph - N/A   Mostly Cloudy
12:53 PM 57.9 °F 50.0 °F 75% 30.22 in 10.0 mi Variable 4.6 mph - 0.00 in   Mostly Cloudy
1:53 PM 57.0 °F 46.9 °F 69% 30.22 in 10.0 mi South 3.5 mph - N/A   Mostly Cloudy
2:53 PM 55.9 °F 46.0 °F 69% 30.22 in 10.0 mi SW 8.1 mph - 0.00 in   Scattered Clouds
3:53 PM 55.9 °F 45.0 °F 67% 30.22 in 10.0 mi SSW 9.2 mph - N/A   Scattered Clouds
4:53 PM 54.0 °F 46.9 °F 77% 30.23 in 10.0 mi SSW 4.6 mph - 0.00 in Rain Light Rain
5:53 PM 55.0 °F 43.0 °F 64% 30.22 in 10.0 mi Variable 3.5 mph - 0.00 in   Overcast
7:53 PM 48.9 °F 44.1 °F 83% 30.22 in 10.0 mi West 3.5 mph - N/A   Clear
8:53 PM 48.0 °F 44.1 °F 86% 30.24 in 10.0 mi Calm Calm - N/A   Clear
9:53 PM 43.0 °F 41.0 °F 93% 30.26 in 10.0 mi Calm Calm - N/A   Scattered Clouds
11:53 PM 45.0 °F 43.0 °F 93% 30.26 in 10.0 mi Calm Calm - N/A   Partly Cloudy